Monroe, WI

8:27 AM CDT on April 30, 2017 (GMT -0500)
Monroe Municipal

Weather History for KEFT - February, 2014

Change the Weather History Date:

Friday, February 14, 2014

  Actual Average Record
Temperature  
Mean Temperature 13 °F -  
Max Temperature 21 °F 0 °F 57 °F (2006)
Min Temperature 5 °F - 0 °F (2015)
Degree Days  
Heating Degree Days 52    
Moisture  
Dew Point 7 °F    
Average Humidity 78    
Maximum Humidity 100    
Minimum Humidity 57    
Precipitation  
Precipitation 0.00 in - - ()
Sea Level Pressure  
Sea Level Pressure 29.76 in    
Wind  
Wind Speed 11 mph (WNW)    
Max Wind Speed 18 mph    
Max Gust Speed 23 mph    
Visibility 10 miles    
Events      
Averages and records for this station are not official NWS values.
T = Trace of Precipitation, MM = Missing Value Source: NWS Daily Summary

Daily Weather History Graph

Daily Weather History Graph

Search for Another Location

Airport or City:

Trip Planner

Search our weather history database for the weather conditions in past years. The results will help you decide how hot, cold, wet, or windy it might be!

Date:

Astronomy

Feb. 14, 2014 Rise Set
Actual Time 6:56 AM CST 5:29 PM CST
Civil Twilight 6:27 AM CST 5:58 PM CST
Nautical Twilight 5:54 AM CST 6:31 PM CST
Astronomical Twilight 5:21 AM CST 7:03 PM CST
Moon 5:34 PM CST (2/14) 6:22 AM CST (2/14)
Length of Visible Light 11h 30m
Length of Day
10h 32m
Full, 100% of the Moon is Illuminated
Feb 14
Full
Feb 14
Full
Feb 22
Last Quarter
Mar 1
New
Mar 8
First Quarter

Hourly Weather History & Observations

Time (CST) Temp. Windchill Dew Point Humidity Pressure Visibility Wind Dir Wind Speed Gust Speed Precip Events Conditions
12:15 AM 11.8 °F -3.6 °F 7.2 °F 81% 29.61 in 10.0 mi West 13.8 mph - N/A   Clear
12:35 AM 11.3 °F -6.0 °F 6.8 °F 82% 29.61 in 10.0 mi West 17.3 mph - N/A   Clear
12:55 AM 10.9 °F -7.0 °F 7.3 °F 85% 29.61 in 10.0 mi West 18.4 mph 23.0 mph N/A   Clear
1:15 AM 10.2 °F -6.3 °F 7.9 °F 90% 29.62 in 10.0 mi West 15.0 mph 18.4 mph N/A   Clear
1:35 AM 9.5 °F -6.6 °F 8.4 °F 95% 29.62 in 10.0 mi West 13.8 mph - N/A   Clear
1:55 AM 9.3 °F -6.8 °F 8.4 °F 96% 29.63 in 10.0 mi WNW 13.8 mph - N/A   Clear
2:15 AM 9.1 °F -7.0 °F 8.4 °F 97% 29.62 in 10.0 mi WNW 13.8 mph 17.3 mph N/A   Clear
2:35 AM 9.0 °F -6.6 °F 8.2 °F 97% 29.64 in 10.0 mi WNW 12.7 mph - N/A   Clear
2:55 AM 9.0 °F -5.9 °F 8.4 °F 98% 29.61 in 10.0 mi WNW 11.5 mph 17.3 mph N/A   Clear
3:15 AM 8.6 °F -4.7 °F 8.2 °F 98% 29.62 in 10.0 mi West 9.2 mph - N/A   Clear
3:35 AM 8.4 °F -5.7 °F 7.7 °F 97% 29.64 in 10.0 mi West 10.4 mph - N/A   Clear
3:55 AM 7.3 °F -8.6 °F 7.2 °F 99% 29.63 in 10.0 mi West 12.7 mph - N/A   Clear
4:15 AM 7.3 °F -7.9 °F 7.3 °F 100% 29.64 in 10.0 mi West 11.5 mph - N/A   Clear
4:35 AM 7.3 °F -6.2 °F 7.3 °F 100% 29.63 in 10.0 mi West 9.2 mph - N/A   Clear
4:55 AM 7.5 °F -6.9 °F 7.5 °F 100% 29.63 in 10.0 mi West 10.4 mph - N/A   Clear
5:15 AM 7.3 °F -6.2 °F 7.2 °F 99% 29.63 in 10.0 mi West 9.2 mph - N/A   Clear
5:35 AM 6.3 °F -8.4 °F 6.3 °F 100% 29.64 in 10.0 mi West 10.4 mph - N/A   Clear
5:55 AM 5.9 °F -8.9 °F 5.9 °F 100% 29.65 in 10.0 mi West 10.4 mph - N/A   Clear
6:15 AM 6.4 °F -9.8 °F 6.4 °F 100% 29.66 in 10.0 mi West 12.7 mph - N/A   Clear
6:35 AM 6.8 °F -9.3 °F 6.8 °F 100% 29.66 in 10.0 mi West 12.7 mph - N/A   Clear
6:55 AM 7.0 °F -7.5 °F 6.8 °F 99% 29.68 in 10.0 mi West 10.4 mph - N/A   Clear
7:15 AM 6.8 °F -7.8 °F 6.8 °F 100% 29.68 in 10.0 mi West 10.4 mph - N/A   Clear
7:35 AM 6.8 °F -7.8 °F 6.6 °F 99% 29.70 in 10.0 mi West 10.4 mph - N/A   Clear
7:55 AM 7.3 °F -7.1 °F 6.8 °F 98% 29.72 in 10.0 mi West 10.4 mph - N/A   Clear
8:15 AM 8.2 °F -8.2 °F 7.3 °F 96% 29.73 in 10.0 mi West 13.8 mph - N/A   Clear
8:35 AM 8.8 °F -6.8 °F 7.7 °F 95% 29.72 in 10.0 mi WNW 12.7 mph - N/A   Clear
8:55 AM 9.7 °F -5.0 °F 8.2 °F 94% 29.72 in 10.0 mi NW 11.5 mph - N/A   Clear
9:15 AM 10.6 °F -3.1 °F 8.6 °F 92% 29.73 in 10.0 mi NW 10.4 mph 18.4 mph N/A   Clear
9:35 AM 11.3 °F -2.9 °F 8.8 °F 90% 29.72 in 10.0 mi NNW 11.5 mph 20.7 mph N/A   Clear
9:55 AM 12.0 °F -0.4 °F 9.3 °F 89% 29.73 in 10.0 mi NNW 9.2 mph 17.3 mph N/A   Clear
10:15 AM 12.4 °F -2.9 °F 8.4 °F 84% 29.74 in 10.0 mi NNW 13.8 mph 19.6 mph N/A   Clear
10:35 AM 13.3 °F 0.3 °F 7.9 °F 79% 29.73 in 10.0 mi NNW 10.4 mph 16.1 mph N/A   Clear
11:00 AM 14.0 °F 2.0 °F 6.6 °F 72% 29.74 in 10.0 mi NNW 9.2 mph - N/A   Clear
11:15 AM 15.1 °F 1.1 °F 6.6 °F 69% 29.75 in 10.0 mi NNW 12.7 mph - N/A   Clear
11:35 AM 15.6 °F 5.9 °F 7.0 °F 69% 29.75 in 10.0 mi NNW 6.9 mph - N/A   Clear
11:55 AM 16.5 °F 4.3 °F 7.5 °F 68% 29.75 in 10.0 mi NW 10.4 mph - N/A   Clear
12:15 PM 18.3 °F 6.6 °F 8.2 °F 65% 29.75 in 10.0 mi NW 10.4 mph 17.3 mph N/A   Clear
12:35 PM 18.5 °F 7.5 °F 8.2 °F 64% 29.75 in 10.0 mi NW 9.2 mph - N/A   Clear
12:55 PM 19.0 °F 8.2 °F 8.6 °F 64% 29.75 in 10.0 mi WNW 9.2 mph - N/A   Clear
1:15 PM 19.6 °F 10.6 °F 8.4 °F 62% 29.74 in 10.0 mi NW 6.9 mph - N/A   Clear
1:35 PM 19.9 °F 10.1 °F 8.4 °F 61% 29.75 in 10.0 mi NW 8.1 mph - N/A   Clear
1:55 PM 20.3 °F 11.5 °F 8.6 °F 61% 29.75 in 10.0 mi NW 6.9 mph - N/A   Clear
2:15 PM 20.8 °F 12.1 °F 8.8 °F 60% 29.75 in 10.0 mi WNW 6.9 mph - N/A   Clear
2:35 PM 21.4 °F 11.1 °F 9.0 °F 59% 29.76 in 10.0 mi WNW 9.2 mph - N/A   Clear
2:55 PM 21.6 °F 11.3 °F 8.8 °F 58% 29.77 in 10.0 mi NW 9.2 mph - N/A   Clear
3:15 PM 21.9 °F 13.4 °F 9.3 °F 58% 29.77 in 10.0 mi WNW 6.9 mph - N/A   Clear
3:35 PM 21.9 °F 11.7 °F 9.0 °F 58% 29.78 in 10.0 mi WNW 9.2 mph - N/A   Clear
3:55 PM 21.6 °F 11.3 °F 8.6 °F 57% 29.78 in 10.0 mi NW 9.2 mph - N/A   Clear
4:15 PM 21.4 °F 11.9 °F 8.8 °F 58% 29.79 in 10.0 mi NW 8.1 mph - N/A   Clear
4:35 PM 21.0 °F 14.6 °F 8.6 °F 59% 29.80 in 10.0 mi NW 4.6 mph - N/A   Clear
4:55 PM 20.3 °F 11.5 °F 8.1 °F 59% 29.81 in 10.0 mi NW 6.9 mph - N/A   Clear
5:15 PM 19.4 °F 9.5 °F 7.7 °F 60% 29.82 in 10.0 mi NW 8.1 mph - N/A   Clear
5:35 PM 18.3 °F 8.2 °F 7.2 °F 62% 29.83 in 10.0 mi NW 8.1 mph - N/A   Clear
5:55 PM 18.0 °F 6.9 °F 6.8 °F 62% 29.84 in 10.0 mi NW 9.2 mph - N/A   Clear
6:20 PM 17.1 °F 5.8 °F 6.3 °F 63% 29.85 in 10.0 mi NW 9.2 mph - N/A   Clear
6:35 PM 16.7 °F 5.3 °F 6.1 °F 63% 29.86 in 10.0 mi NW 9.2 mph 16.1 mph N/A   Clear
6:55 PM 15.8 °F 6.1 °F 5.5 °F 64% 29.86 in 10.0 mi NW 6.9 mph - N/A   Clear
7:15 PM 14.9 °F 4.0 °F 5.0 °F 65% 29.86 in 10.0 mi WNW 8.1 mph - N/A   Clear
7:35 PM 14.7 °F 3.8 °F 5.0 °F 65% 29.88 in 10.0 mi WNW 8.1 mph - N/A   Clear
7:55 PM 14.0 °F 2.9 °F 4.5 °F 66% 29.88 in 10.0 mi WNW 8.1 mph - N/A   Clear
8:15 PM 13.6 °F 0.7 °F 4.1 °F 66% 29.89 in 10.0 mi WNW 10.4 mph - N/A   Clear
8:35 PM 13.1 °F 2.8 °F 4.1 °F 67% 29.90 in 10.0 mi NW 6.9 mph - N/A   Clear
8:55 PM 12.9 °F 0.7 °F 3.9 °F 67% 29.90 in 10.0 mi NW 9.2 mph - N/A   Clear
9:15 PM 12.6 °F 0.2 °F 3.6 °F 67% 29.91 in 10.0 mi NW 9.2 mph - N/A   Clear
9:35 PM 11.8 °F 0.3 °F 3.2 °F 68% 29.90 in 10.0 mi NW 8.1 mph - N/A   Clear
9:55 PM 11.3 °F 0.7 °F 2.8 °F 69% 29.92 in 10.0 mi NW 6.9 mph - N/A   Clear
10:15 PM 11.1 °F 0.4 °F 2.3 °F 68% 29.93 in 10.0 mi NW 6.9 mph - N/A   Clear
10:35 PM 10.9 °F -1.8 °F 2.3 °F 68% 29.93 in 10.0 mi NW 9.2 mph - N/A   Clear
10:55 PM 10.8 °F 0.0 °F 1.8 °F 67% 29.93 in 10.0 mi NW 6.9 mph - N/A   Clear
11:15 PM 10.4 °F -1.5 °F 1.4 °F 67% 29.94 in 10.0 mi NW 8.1 mph - N/A   Clear
11:35 PM 9.5 °F -3.5 °F 1.2 °F 69% 29.94 in 10.0 mi NW 9.2 mph - N/A   Clear
11:55 PM 9.5 °F -4.4 °F 1.0 °F 69% 29.94 in 10.0 mi NW 10.4 mph - N/A   Clear